GW1675 Weather Reports


time (UTC)temp
C
wind
direction
speed
KPH
gust
KPH
rain 1hr
cm
rain 24hr
cm
rain mn
cm
humidity
%
barometer
mb
20260505111546 19 111 11.3 22.5 0.00 0.00 0.00 67 1018.6
20260505101551 18 118 8.0 25.7 0.00 0.00 0.00 68 1018.6
20260505100044 18 117 9.7 20.9 0.00 0.00 0.00 69 1018.6
20260505094557 17 117 17.7 25.7 0.00 0.00 0.00 69 1018.7
20260505093053 17 116 17.7 30.6 0.00 0.00 0.00 69 1018.8
20260505091542 17 120 17.7 25.7 0.00 0.00 0.00 70 1018.6
20260505090055 17 120 16.1 25.7 0.00 0.00 0.00 70 1018.5
20260505084544 16 120 9.7 25.7 0.00 0.00 0.00 70 1018.6
20260505083101 16 120 11.3 22.5 0.00 0.00 0.00 71 1018.7
20260505081544 16 120 11.3 24.1 0.00 0.00 0.00 71 1018.6
20260505080045 15 120 6.4 24.1 0.00 0.00 0.00 71 1018.6
20260505074542 15 120 14.5 22.5 0.00 0.00 0.00 71 1018.7
20260505073044 15 120 17.7 27.4 0.00 0.00 0.00 71 1018.7
20260505071545 14 119 9.7 19.3 0.00 0.00 0.00 71 1018.6
20260505070059 13 118 14.5 22.5 0.00 0.00 0.00 71 1018.5
20260505064550 13 119 14.5 24.1 0.00 0.00 0.00 70 1018.4
20260505063044 13 118 14.5 29.0 0.00 0.00 0.00 70 1018.3
20260505061610 13 117 14.5 25.7 0.00 0.00 0.00 70 1018.3
20260505060057 12 117 12.9 22.5 0.00 0.00 0.00 70 1018.3
20260505054555 12 117 11.3 25.7 0.00 0.00 0.00 69 1018.2
20260505053045 12 117 12.9 19.3 0.00 0.00 0.00 69 1018.1
20260505051544 12 117 11.3 24.1 0.00 0.00 0.00 69 1018.0
20260505041548 12 115 11.3 29.0 0.00 0.00 0.00 68 1017.9
20260505040059 13 112 14.5 25.7 0.00 0.00 0.00 68 1018.0
20260505034543 13 110 14.5 27.4 0.00 0.00 0.00 67 1017.9
20260505033049 13 109 14.5 25.7 0.00 0.00 0.00 67 1017.9
20260505031551 13 104 14.5 27.4 0.00 0.00 0.00 67 1017.9
20260505030055 13 101 14.5 25.7 0.00 0.00 0.00 67 1017.7
20260505024550 13 101 14.5 20.9 0.00 0.00 0.00 67 1017.8
20260505023044 13 100 16.1 25.7 0.00 0.00 0.00 66 1017.8
20260505021543 13 99 14.5 20.9 0.00 0.00 0.00 66 1018.0
20260505020047 13 99 9.7 24.1 0.00 0.00 0.00 66 1018.0
20260505014546 13 99 11.3 25.7 0.00 0.00 0.00 66 1018.2
20260505013051 13 97 14.5 25.7 0.00 0.00 0.00 65 1018.1
20260505011546 14 94 16.1 27.4 0.00 0.00 0.00 65 1018.2
20260505010056 14 94 16.1 29.0 0.00 0.00 0.00 65 1018.3
20260505004549 14 89 11.3 30.6 0.00 0.00 0.00 65 1018.5
20260505003044 15 101 12.9 29.0 0.00 0.00 0.00 64 1018.6
20260505001545 15 94 12.9 30.6 0.00 0.00 0.00 64 1018.7
20260505000054 15 90 11.3 24.1 0.00 0.00 0.00 64 1018.8
20260504234543 15 89 12.9 25.7 0.00 0.00 0.00 64 1018.7
20260504233045 15 89 12.9 29.0 0.00 0.00 0.00 63 1018.7
20260504231544 15 89 12.9 30.6 0.00 0.00 0.00 63 1018.7
20260504230044 15 88 17.7 35.4 0.00 0.00 0.00 63 1018.7
20260504224545 15 87 16.1 35.4 0.00 0.00 0.00 62 1018.8
20260504223047 16 84 16.1 25.7 0.00 0.00 0.00 62 1018.8
20260504221547 16 84 16.1 29.0 0.00 0.00 0.00 62 1018.7
20260504220100 16 79 16.1 27.4 0.00 0.00 0.00 62 1018.9
20260504214556 16 82 11.3 25.7 0.00 0.00 0.00 62 1018.8
20260504213107 16 82 9.7 17.7 0.00 0.00 0.00 61 1018.8
20260504211555 16 82 9.7 25.7 0.00 0.00 0.00 61 1018.6
20260504210045 16 82 14.5 30.6 0.00 0.00 0.00 61 1018.6
20260504204545 16 85 12.9 27.4 0.00 0.00 0.00 61 1018.4
20260504203047 17 86 8.0 20.9 0.00 0.00 0.00 61 1018.3
20260504201547 17 87 6.4 19.3 0.00 0.00 0.00 61 1017.8
20260504200045 17 87 6.4 24.1 0.00 0.00 0.00 61 1017.8
20260504194545 17 87 8.0 19.3 0.00 0.00 0.00 61 1017.5
20260504193058 18 86 8.0 16.1 0.00 0.00 0.00 61 1017.4
20260504191553 18 87 9.7 22.5 0.00 0.00 0.00 61 1017.3
20260504190054 20 87 12.9 29.0 0.00 0.00 0.00 62 1017.1
20260504184545 20 89 14.5 27.4 0.00 0.00 0.00 62 1016.8
20260504183056 21 94 9.7 24.1 0.00 0.00 0.00 62 1016.6
20260504181552 21 103 14.5 25.7 0.00 0.00 0.00 63 1016.5
20260504180131 21 137 12.9 20.9 0.00 0.00 0.00 63 1016.4
20260504174548 22 158 8.0 17.7 0.00 0.00 0.00 63 1016.3
20260504173052 22 167 9.7 20.9 0.00 0.00 0.00 64 1016.2
20260504171549 22 176 4.8 11.3 0.00 0.00 0.00 64 1016.2